Back to catalog

COSMOS 1818 COOLANT

AliveLEO
NORAD 36938·DEBRIS·🇷🇺 Russia

Launched Feb 1, 1987 from Baikonur Cosmodrome

Loading…

Next Passes (next 24 hours)

TLE

AgingSource: Space-Track

Epoch: Sep 9, 2026, 10:12 UTC

1 36938U 87011S   26252.42517322  .00000410  00000-0  16540-3 0  9993
2 36938  65.0059 308.0079 0021237 283.0921  76.7797 14.38932539279900

Track COSMOS 1818 COOLANT in real time with AllMySat

Download on the App Store